Regional Weather Roundup
Issued by NWS

Home | Current Version | Previous Version | Text Only | Print | Product List | Glossary Off
Versions: 1 2 3 4 5 6 7 8 9 10 11 12 13 14 15 16 17 18 19 20 21 22 23 24 25 26 27 28 29 30 31 32 33 34 35 36 37 38 39 40 41 42 43 44 45 46 47 48 49 50

000
ASUS43 KOAX 200910
RWRNE

WEATHER ROUNDUP FOR NEBRASKA
NATIONAL WEATHER SERVICE OMAHA NE
400 AM CDT SUN APR 20 2014

NOTES: SATELLITE DATA IS BEING USED TO AUGMENT CLOUD COVER ABOVE
       12000 FEET.
       "FAIR" INDICATES FEW OR NO CLOUDS BELOW 12,000 FEET WITH NO
       SIGNIFICANT WEATHER AND/OR OBSTRUCTIONS TO VISIBILITY.

  * THESE STATIONS DO NOT REPORT WEATHER SUCH AS RAIN...SNOW OR FOG.

NEZ001>004-019>022-054>056-201000-
NEBRASKA PANHANDLE

CITY           SKY/WX    TMP DP  RH WIND       PRES   REMARKS
SCOTTSBLUFF    PTCLDY    46  35  65 E8        29.99F
ALLIANCE       CLEAR     39  34  82 S10       30.00F WCI  32
CHADRON        PTCLDY    49  37  63 SW7       29.93F
KIMBALL        PTCLDY    46  40  79 SW9       30.02S
SIDNEY         PTCLDY    42  35  76 SW9       30.03S
$$

NEZ057>060-069>072-079>082-201000-
SOUTHWEST NEBRASKA

CITY           SKY/WX    TMP DP  RH WIND       PRES   REMARKS
NORTH PLATTE   PTCLDY    39  36  89 NW9       29.99S WCI  33
IMPERIAL       PTCLDY    45  40  82 NW5       30.01R
LEXINGTON      CLEAR     50  45  81 NE3       29.97S
MCCOOK         MOCLDY    51  49  92 CALM      29.98S FOG
OGALLALA       CLEAR     41  36  81 CALM      30.01F
$$

NEZ005>010-023>029-035>040-094-201000-
NORTH CENTRAL NEBRASKA

CITY           SKY/WX    TMP DP  RH WIND       PRES   REMARKS
VALENTINE      CLEAR     37  24  59 CALM      30.02F
AINSWORTH      CLEAR     40  32  71 CALM      30.02S
BROKEN BOW     PTCLDY    47  39  74 N12       29.97F
O`NEILL        CLEAR     49  30  47 N7        30.00S
ORD            PTCLDY    50  35  56 NW6       29.96S
THEDFORD       PTCLDY    45  36  70 CALM      30.03F
$$

NEZ041-046>049-061>064-073>077-083>087-201000-
SOUTH CENTRAL NEBRASKA

CITY           SKY/WX    TMP DP  RH WIND       PRES   REMARKS
GRAND ISLAND   CLOUDY    61  50  67 S7        29.94F
AURORA         CLOUDY    61  51  70 S8        29.95F
HASTINGS       CLOUDY    61  49  64 S6        29.95S
HEBRON         MOCLDY    60  49  65 S9        29.98S
HOLDREGE       MOCLDY    54  49  82 CALM      29.97R
KEARNEY *      CLOUDY    54  46  76 CALM      29.97R
YORK           CLOUDY    59  50  72 S10       29.95F
$$

NEZ011>018-030>034-042>045-201000-
NORTHEAST NEBRASKA

CITY           SKY/WX    TMP DP  RH WIND       PRES   REMARKS
NORFOLK        MOCLDY    54  45  71 CALM      29.95S
ALBION         PTCLDY    51  41  68 CALM      29.96S
BLAIR          MOCLDY    64  45  49 S18G24    29.98S
COLUMBUS *     MOCLDY    59  45  58 S6        29.96S
FREMONT        MOCLDY    63  45  51 SE8       29.97R
TEKAMAH        MOCLDY    62  44  51 S7        29.97S
$$

NEZ050>053-065>068-078-088>093-201000-
SOUTHEAST NEBRASKA

CITY           SKY/WX    TMP DP  RH WIND       PRES   REMARKS
LINCOLN        MOCLDY    64  46  52 S16G22    29.97R
OMAHA EPPLEY   MOCLDY    64  45  49 S14       29.98F
BEATRICE       PTCLDY    62  47  56 S13       30.00R
FALLS CITY     PTCLDY    61  46  57 S9        30.04S
NEBRASKA CITY  PTCLDY    64  46  51 S17G23    30.01F
PLATTSMOUTH    PTCLDY    64  44  47 S17       30.00F
$$

NEZ044-045-051>053-067-201000-
OMAHA AREA

CITY           SKY/WX    TMP DP  RH WIND       PRES   REMARKS
OMAHA EPPLEY   MOCLDY    64  45  49 S14       29.98F
BLAIR          MOCLDY    64  45  49 S18G24    29.98S
FREMONT        MOCLDY    63  45  51 SE8       29.97R
MILLARD        PTCLDY    64  46  51 SE9       29.98F
OFFUTT AFB     MOCLDY    63  47  54 SE14      29.99F
PLATTSMOUTH    PTCLDY    64  44  47 S17       30.00F
WAHOO          FAIR      62  45  54 S13       29.97S
$$



USA.gov is the U.S. government's official web portal to all federal, state and local government web resources and services.